Location: Huesca
(42.1318°N, 0.4078°W)
Time: 19:44:28
(UTC+02:00)

YUBILEINY - Pass Details

Date: 23 April 2026
Orbit: 1477 x 1509 km, 82.5° (Epoch: 17 May)

Event Time Altitude Azimuth Distance (km) Brightness Sun altitude
Rises 23:54:11 0° 358° (N) 4,610 ? -28.2°
Reaches altitude 10° 23:57:34 10° 8° (N) 3,629 ? -28.6°
Maximum altitude 00:05:05 31° 68° (ENE) 2,374 ? -29.4°
Enters shadow 00:06:32 30° 85° (E) 2,435 ? -29.5°
